Flag for Afghanistan Weather past 2 weeks in Mazari Sharif, Afghanistan

Now
70 °F

Clear.


Feels Like: 70 °F
Forecast: 52 / 82 °F
Wind: 1 mph from Northeast

Location: Termez Airport

Current Time: Apr 27, 2015 at 8:15:00 PM

Latest Report: Apr 27, 2015 at 7:30 PM


Visibility: 10 mi

Pressure: 30.18 "Hg

Humidity: 33%

Dew point: 39 °F

Location of Mazari SharifLocation

Historic Weather in Mazari Sharif — Graph

°F

Mazari Sharif temperature yesterday

Maximum temperature yesterday: 77 °F (at 12:00 AM)
Minimum temperature yesterday: 70 °F (at 1:00 AM)
Average temperature yesterday: 73 °F

Past Weeks' High & Low Weather Summary

 TemperatureHumidityPressure
High97 °F (Apr 25, 12:30 PM)100% (Apr 18, 3:30 AM)30.30 "Hg (Apr 18, 3:30 AM)
Low50 °F (Apr 18, 3:30 AM)9% (Apr 13, 1:00 PM)29.65 "Hg (Apr 25, 9:30 PM)
Average72 °F48%29.96 "Hg
* Reported Apr 12 6:30 PM — Apr 27 6:30 PM, Mazari Sharif, Weather by CustomWeather, © 2015

Note: Actual official high and low records may vary slightly from our data, if they occured in-between our weather recording intervals... More about our weather records

Advertising

Mazari Sharif weather history for previous 24 hours

 ConditionsComfort  
Time TempWeatherWind HumidityBarometerVisibility
6:30 PM
Mon, Apr 27
72 °FPassing clouds.1 mph29%30.18 "HgN/A
6:00 PM73 °FSunny.5 mph27%30.15 "Hg10 mi
5:30 PM73 °FSunny.6 mph27%30.15 "Hg10 mi
5:00 PM75 °FPassing clouds.5 mph27%30.18 "HgN/A
4:30 PM75 °FPassing clouds.5 mph25%30.18 "HgN/A
4:00 PM75 °FPassing clouds.7 mph27%30.18 "HgN/A
3:30 PM75 °FSunny.5 mph27%30.18 "Hg10 mi
3:00 PM75 °FSunny.3 mph25%30.18 "Hg10 mi
2:30 PM75 °FSunny.2 mph25%30.21 "Hg10 mi
2:00 PM75 °FPassing clouds.6 mph27%30.21 "HgN/A
1:30 PM73 °FPassing clouds.6 mph27%30.21 "HgN/A
1:00 PM73 °FPassing clouds.6 mph29%30.24 "HgN/A
12:30 PM73 °FPassing clouds.6 mph29%30.24 "HgN/A
12:00 PM72 °FPassing clouds.8 mph31%30.24 "HgN/A
11:30 AM70 °FSunny.5 mph31%30.27 "Hg10 mi
11:00 AM70 °FPassing clouds.8 mph35%30.27 "HgN/A
10:30 AM68 °FPassing clouds.6 mph35%30.27 "HgN/A
10:00 AM66 °FPassing clouds.6 mph37%30.30 "HgN/A
9:30 AM64 °FPassing clouds.8 mph46%30.30 "HgN/A
Weather by CustomWeather, © 2015

See weather overviewHow to use our weather pages